Regional Weather Roundup
Issued by NWS

Home | Current Version | Previous Version | Text Only | Print | Product List | Glossary On
Versions: 1 2 3 4 5 6 7 8 9 10 11 12 13 14 15 16 17 18 19 20 21 22 23 24 25 26 27 28 29 30 31 32 33 34 35 36 37 38 39 40 41 42 43 44 45 46 47 48 49 50
000
ASUS44 KJAN 292120
RWRMS

MISSISSIPPI HOURLY WEATHER ROUNDUP
NATIONAL WEATHER SERVICE JACKSON MS
400 PM CDT THU SEP 29 2016

NOTE: "FAIR: INDICATES FEW OR NO CLOUDS BELOW 12,000 FEET WITH NO
SIGNIFICANT WEATHER AND/OR OBSTRUCTIONS TO VISIBILITY.

MSZ001>002-007>008-010>013-018>021-025>028-034>036-292200-
NORTHWEST MISSISSIPPI

CITY           SKY/WX    TMP DP  RH WIND       PRES   REMARKS
BATESVILLE     FAIR      77  47  33 N8        30.11S
CLARKSDALE     SUNNY     79  50  36 N9G16     30.11F
CLEVELAND      FAIR      77  48  35 N10G23    30.11F
GREENWOOD      SUNNY     78  47  33 N9        30.10F
GREENVILLE     LGT RAIN  77  47  34 N8G21     30.12F
OLIVE BRANCH   PTSUNNY  N/A N/A N/A N9        30.09F
OXFORD         FAIR      73  48  40 N9G16     30.11F
TUNICA         PTCLDY    75  50  41 NW9G21    30.11S
WINONA         FAIR      75  47  36 NW6       30.09F
$$

MSZ003>006-009-014>017-022>024-029>033-037>039-292200-
NORTHEAST MISSISSIPPI

CITY           SKY/WX    TMP DP  RH WIND       PRES   REMARKS
COLUMBUS AFB   SUNNY     78  48  35 N12       30.06F
CORINTH        MOCLDY    72  50  46 NW16G22   30.08S
GOLDN TRIANGLE MOSUNNY   79  46  31 N12       30.07F
STARKVILLE     FAIR      77  46  33 NW8       30.08F
TUPELO         PTSUNNY   75  46  35 NW13G22   30.07F
$$

MSZ040-058-292200-
CENTRAL MISSISSIPPI

CITY           SKY/WX    TMP DP  RH WIND       PRES   REMARKS
JACKSON INTL   SUNNY     79  46  31 NW10      30.08F
JACKSON HAWKNS SUNNY     77  45  32 N9        30.10F
MADISON        FAIR      75  45  33 NW10G16   30.08F
MERIDIAN KEY   SUNNY     82  45  27 N13G21    30.06F
MERIDIAN NAS   SUNNY     80  42  25 VRB7G17   30.06F
VICKSBURG VKS  CLEAR     77  48  36 N12       30.10F
$$

MSZ059>079-292200-
SOUTH MISSISSIPPI

CITY           SKY/WX    TMP DP  RH WIND       PRES   REMARKS
BROOKHAVEN     FAIR     N/A N/A N/A NW10      30.10S
HATTIESBURG    SUNNY     81  51  35 N7        30.05F
LAUREL         FAIR      80  46  30 N9        30.06F
MCCOMB         SUNNY     79  47  32 N14       30.07F
NATCHEZ        SUNNY     75  48  38 N12G17    30.10F
PINE BELT      SUNNY     81  46  30 N8        30.06F
$$

MSZ080>082-292200-
COASTAL MISSISSIPPI

CITY           SKY/WX    TMP DP  RH WIND       PRES   REMARKS
BILOXI         SUNNY     84  63  49 N12       30.00F
PASCAGOULA     SUNNY     84  64  50 NW6       30.00F
GULFPORT       MOSUNNY   85  63  47 N6        30.00F
$$

LAZ007>009-015>016-023>026-292200-
NORTHEAST LOUISIANA

CITY           SKY/WX    TMP DP  RH WIND       PRES   REMARKS
BASTROP        FAIR      78  49  35 NW5       30.15S
TALLULAH/VBURG SUNNY     78  47  33 N8G17     30.11F
$$



USA.gov is the U.S. government's official web portal to all federal, state and local government web resources and services.